User: anonymous   Login
Location: ????? ????
(37.9717°N, 23.4051°E)
Time: 00:19:19
(UTC+00:00)
Language:

Cosmos 1953 - Orbit

View from above orbital plane
View from above orbital plane
View from above satellite
View from above satellite

Ground track
Ground track

The orbit data is extracted from the following two-line orbital elements,

1 19210U 88050A   24175.59070490  .00004840  00000-0  25517-3 0  9996
2 19210  82.5141  60.1565 0015446 142.4408 217.7907 15.15245702942833
Epoch (UTC): 23 June 2024 14:10:36
Eccentricity: 0.0015446
inclination: 82.5141°
perigee height: 509 km
apogee height: 531 km
right ascension of ascending node: 60.1565°
argument of perigee: 142.4408°
revolutions per day: 15.15245702
mean anomaly at epoch: 217.7907°
orbit number at epoch: 94283

The dashed part of the orbit path shows where the satellite is in the earth's shadow,  

DLR